Regional Weather Roundup
Issued by NWS Newport/Morehead, NC

Current Version | Previous Version | Graphics & Text | Print | Product List | Glossary On
Versions: 1 2 3 4 5 6 7 8 9 10 11 12 13 14 15 16 17 18 19 20 21 22 23 24 25 26 27 28 29 30 31 32 33 34 35 36 37 38 39 40 41 42 43 44 45 46 47 48 49 50
000 ASUS42 KMHX 031413 RWRMHX WEATHER ROUNDUP FOR EASTERN NORTH CAROLINA NATIONAL WEATHER SERVICE NEWPORT/MOREHEAD CITY NC 1000 AM EDT MON AUG 03 2015 NOTE: "FAIR" INDICATES FEW OR NO CLOUDS BELOW 12,000 FEET WITH NO SIGNIFICANT WEATHER AND/OR OBSTRUCTIONS TO VISIBILITY NCZ015>017-031-032-045>047-102-103-031500- NORTH COAST CITY SKY/WX TMP DP RH WIND PRES REMARKS EDENTON N/A 80 74 80 SW9 29.94F ELIZABETH CITY MOSUNNY 82 74 76 SW9 29.94F KITTY HAWK MOSUNNY 81 72 75 SW7 29.95S MANTEO PTSUNNY 78 72 81 SW16 29.96S $$ NCZ045>047-081-094-103-104-031500- CENTRAL COAST CITY SKY/WX TMP DP RH WIND PRES REMARKS FRISCO RAIN 70 68 93 NW6 30.02R SWANQUARTER N/A 72 N/A N/A E9 29.94S $$ NCZ095-097-098-100-101-031500- SOUTHERN COAST CITY SKY/WX TMP DP RH WIND PRES REMARKS BEAUFORT RAIN 75 73 93 S6 29.95F CEDAR ISLAND N/A 77 N/A N/A SW7 30.00S JACKSONVILLE LGT RAIN 74 71 91 W6 29.96S PINEY ISLAND CLOUDY N/A N/A N/A SW8 29.96F WILMINGTON PTSUNNY 79 74 84 SW3 29.95R $$ NCZ011>013-027>030-043-044-078>080-089-090>093-098-031500- COASTAL PLAIN CITY SKY/WX TMP DP RH WIND PRES REMARKS AHOSKIE SUNNY 81 72 75 CALM 29.93S CLINTON MOSUNNY 82 74 77 S3 29.95S ELIZABETHTOWN PTSUNNY 80 72 76 CALM 29.95F GOLDSBORO MOSUNNY 83 73 72 W5 29.92F GREENVILLE PTSUNNY 81 73 78 SW6 29.96F HAVELOCK TSTM 73 71 93 W6 29.98S VSB 1 KENANSVILLE MOSUNNY 80 72 75 SW3 29.96S KINSTON MOSUNNY 82 73 74 SW7 29.95F NEW BERN LGT RAIN 76 72 87 S6 29.97S RICHLANDS CLOUDY 75 70 83 SW6 29.96S ROCKY MOUNT PTSUNNY 81 72 74 W7 29.94F WASHINGTON SUNNY 81 73 78 SW5 29.94F WHITEVILLE CLOUDY 78 74 87 SW3 29.95S $$ AMZ130-135-150-152-154-156-158-170-250-252-270-ANZ085-086-088-633-658-670-031500- MARINE OBSERVATIONS STATION/POSITION TIME TEMP WIND PRES WAVE SWELL AIR SEA DIR/SP/G HT/PER HT/PER (UTC) (F) (DEG/KT/KT) (MB) (FT/S) (FT/S) CHESAPEAKE LIGHT 1400 79 240/ 12/ 14 1013.9 64 E VA BEACH 1350 80 81 190/ 17/ 19 1013.2 3/ 7 2/ 7 DUCK 1300 78 77 190/ 13/ 16 1013.1 2 E DUCK 1311 79 N/A 2/11 2/11 OREGON INLET 1300 77 83 190/ 12/ 14 1014.5 13E OREGON INLT 1400 80 N/A 3/ 6 2/12 HATTERAS CG 1300 71 82 350/ 6/ 7 1015.2 DIAMOND BUOY 1350 75 84 340/ 10/ 12 1015.6 5/ 8 5/ 8 CAPE LOOKOUT 1400 77 320/ 6/ 8 1014.3 BEAUFORT LAB 1300 77 82 280/ 4/ 10 1014.4 30 SE NEW RVR IN NOT AVBL 27 SE WRIGHTSVLE 1300 75 82 260/ 6/ 8 N/A 5 SE WRIGHTSVLE 1308 77 82 310/ 10/ 17 1013.4 225 S CAPE HAT 1350 83 81 200/ 14/ 16 1017.4 5/ 6 2/ 7 41 SE CHARLESTON 1350 83 83 190/ 14/ 16 1013.3 4/ 6 2/ 8 $$

USA.gov is the U.S. government's official web portal to all federal, state and local government web resources and services.